When you browse on this site, cookies collect data to enhance your experience and personalize the content and advertising you see.
Visit our Privacy Policy to learn more. By continuing to use the site, you agree to this use of cookies and data.
  • In Sweden
  • List of Countries
  • For 7 days
  • Water Temperature
  • Satellite Maps
  • Weather Map
  • Weather Widgets
  • user-avatar
    Login

    Hourly Weather Bergama

    Today, 20 November, Tuesday

    Time Temperature Precipitation Wind Pressure Humidity
    00:00 +16°C° 0 mm 2 mps 758 mmHg 91%
    01:00 +16°C° 0 mm 2 mps 758 mmHg 90%
    02:00 +16°C° 0 mm 1 mps 759 mmHg 90%
    03:00 +16°C° 0 mm 2 mps 759 mmHg 90%
    04:00 +16°C° 0 mm 2 mps 759 mmHg 89%
    05:00 +15°C° 0 mm 2 mps 759 mmHg 89%
    06:00 +16°C° 0 mm 2 mps 759 mmHg 88%
    07:00 +16°C° 0 mm 2 mps 759 mmHg 86%
    08:00 +16°C° 0 mm 2 mps 759 mmHg 84%
    09:00 +17°C° 0 mm 2 mps 759 mmHg 79%
    10:00 +18°C° 0 mm 2 mps 759 mmHg 74%
    11:00 +20°C° 0 mm 2 mps 760 mmHg 68%
    12:00 +20°C° 0 mm 3 mps 759 mmHg 66%
    13:00 +21°C° 0 mm 3 mps 759 mmHg 64%
    14:00 +21°C° 0 mm 4 mps 759 mmHg 66%
    15:00 +20°C° 0 mm 3 mps 759 mmHg 69%
    16:00 +19°C° 0 mm 2 mps 759 mmHg 72%
    17:00 +19°C° 0 mm 2 mps 759 mmHg 76%
    18:00 +18°C° 0 mm 2 mps 758 mmHg 76%
    19:00 +18°C° 0 mm 2 mps 758 mmHg 77%
    20:00 +17°C° 0 mm 2 mps 758 mmHg 78%
    21:00 +17°C° 0 mm 2 mps 758 mmHg 78%
    22:00 +17°C° 0 mm 2 mps 758 mmHg 78%
    23:00 +17°C° 0 mm 2 mps 757 mmHg 78%

    Tomorrow, 21 November, Wednesday

    Time Temperature Precipitation Wind Pressure Humidity
    00:00 +17°C° 0 mm 2 mps 757 mmHg 78%
    01:00 +17°C° 0 mm 2 mps 757 mmHg 78%
    02:00 +17°C° 0 mm 2 mps 757 mmHg 78%
    03:00 +16°C° 0 mm 2 mps 756 mmHg 78%
    04:00 +16°C° 0 mm 2 mps 756 mmHg 79%
    05:00 +16°C° 0 mm 2 mps 755 mmHg 79%
    06:00 +16°C° 0 mm 3 mps 755 mmHg 79%
    07:00 +16°C° 0 mm 3 mps 755 mmHg 78%
    08:00 +16°C° 0 mm 3 mps 755 mmHg 77%
    09:00 +17°C° 0.6 mm 3 mps 754 mmHg 74%
    10:00 +18°C° 0.6 mm 4 mps 754 mmHg 71%
    11:00 +19°C° 0.6 mm 4 mps 754 mmHg 68%
    12:00 +19°C° 0.7 mm 5 mps 754 mmHg 66%
    13:00 +20°C° 0.7 mm 6 mps 754 mmHg 65%
    14:00 +20°C° 0.7 mm 6 mps 753 mmHg 63%
    15:00 +19°C° 0.3 mm 5 mps 753 mmHg 68%
    16:00 +18°C° 0.3 mm 4 mps 753 mmHg 73%
    17:00 +18°C° 0.3 mm 3 mps 753 mmHg 78%
    18:00 +17°C° 0.1 mm 3 mps 753 mmHg 82%
    19:00 +16°C° 0.1 mm 3 mps 753 mmHg 86%
    20:00 +16°C° 0.1 mm 2 mps 754 mmHg 89%
    21:00 +15°C° 0.1 mm 2 mps 754 mmHg 90%
    22:00 +15°C° 0.1 mm 2 mps 754 mmHg 91%
    23:00 +15°C° 0.1 mm 2 mps 754 mmHg 92%

    Day after tomorrow, 22 November, Thursday

    Time Temperature Precipitation Wind Pressure Humidity
    00:00 +15°C° 0.3 mm 2 mps 754 mmHg 92%
    01:00 +15°C° 0.3 mm 2 mps 754 mmHg 91%
    02:00 +14°C° 0.3 mm 2 mps 754 mmHg 91%
    03:00 +14°C° 0.3 mm 2 mps 754 mmHg 91%
    04:00 +14°C° 0.3 mm 1 mps 755 mmHg 91%
    05:00 +14°C° 0.3 mm 1 mps 755 mmHg 90%
    06:00 +14°C° 0.3 mm 1 mps 755 mmHg 90%
    07:00 +14°C° 0.3 mm 1 mps 755 mmHg 90%
    08:00 +14°C° 0.3 mm 1 mps 756 mmHg 90%
    09:00 +15°C° 0.4 mm 1 mps 756 mmHg 86%
    10:00 +15°C° 0.4 mm 2 mps 756 mmHg 83%
    11:00 +16°C° 0.4 mm 2 mps 756 mmHg 79%
    12:00 +16°C° 0.2 mm 2 mps 756 mmHg 78%
    13:00 +16°C° 0.2 mm 3 mps 756 mmHg 77%
    14:00 +16°C° 0.2 mm 3 mps 756 mmHg 76%
    15:00 +14°C° 0.1 mm 3 mps 756 mmHg 78%
    16:00 +14°C° 0.1 mm 4 mps 757 mmHg 81%
    17:00 +13°C° 0.1 mm 4 mps 757 mmHg 83%
    18:00 +13°C° 0 mm 4 mps 757 mmHg 83%
    19:00 +13°C° 0 mm 4 mps 758 mmHg 83%
    20:00 +12°C° 0 mm 4 mps 758 mmHg 84%
    21:00 +12°C° 0 mm 4 mps 758 mmHg 84%
    22:00 +12°C° 0 mm 4 mps 759 mmHg 84%
    23:00 +12°C° 0 mm 4 mps 759 mmHg 84%

    23 November, Friday

    Time Temperature Precipitation Wind Pressure Humidity
    00:00 +11°C° 0 mm 4 mps 759 mmHg 84%
    01:00 +11°C° 0 mm 4 mps 759 mmHg 84%
    02:00 +11°C° 0 mm 4 mps 759 mmHg 83%
    03:00 +10°C° 0 mm 5 mps 759 mmHg 83%
    04:00 +10°C° 0 mm 5 mps 759 mmHg 83%
    05:00 +10°C° 0 mm 5 mps 759 mmHg 83%
    06:00 +10°C° 0 mm 5 mps 760 mmHg 83%
    07:00 +9°C° 0 mm 5 mps 760 mmHg 82%
    08:00 +9°C° 0 mm 5 mps 761 mmHg 82%
    09:00 +10°C° 0 mm 6 mps 761 mmHg 77%
    10:00 +11°C° 0 mm 6 mps 761 mmHg 72%
    11:00 +12°C° 0 mm 7 mps 761 mmHg 68%
    12:00 +12°C° 0 mm 7 mps 761 mmHg 66%
    13:00 +12°C° 0 mm 7 mps 761 mmHg 64%
    14:00 +12°C° 0 mm 7 mps 760 mmHg 63%
    15:00 +11°C° 0 mm 7 mps 761 mmHg 65%
    16:00 +10°C° 0 mm 6 mps 761 mmHg 67%
    17:00 +9°C° 0 mm 6 mps 761 mmHg 70%
    18:00 +9°C° 0 mm 6 mps 761 mmHg 72%
    19:00 +8°C° 0 mm 6 mps 761 mmHg 74%
    20:00 +8°C° 0 mm 6 mps 762 mmHg 76%
    21:00 +7°C° 0 mm 5 mps 762 mmHg 77%
    22:00 +7°C° 0 mm 5 mps 762 mmHg 78%
    23:00 +7°C° 0 mm 5 mps 762 mmHg 79%

    24 November, Saturday

    Time Temperature Precipitation Wind Pressure Humidity
    00:00 +7°C° 0 mm 5 mps 762 mmHg 80%
    01:00 +7°C° 0 mm 5 mps 762 mmHg 81%
    02:00 +6°C° 0 mm 5 mps 762 mmHg 82%
    03:00 +6°C° 0 mm 5 mps 761 mmHg 83%
    04:00 +6°C° 0 mm 5 mps 761 mmHg 84%
    05:00 +6°C° 0 mm 5 mps 761 mmHg 85%
    06:00 +6°C° 0 mm 4 mps 761 mmHg 84%
    07:00 +6°C° 0 mm 4 mps 761 mmHg 83%
    08:00 +6°C° 0 mm 4 mps 762 mmHg 83%
    09:00 +8°C° 0 mm 4 mps 761 mmHg 76%
    10:00 +10°C° 0 mm 4 mps 761 mmHg 69%
    11:00 +12°C° 0 mm 5 mps 761 mmHg 63%
    12:00 +12°C° 0 mm 4 mps 761 mmHg 61%
    13:00 +13°C° 0 mm 4 mps 760 mmHg 59%
    14:00 +14°C° 0 mm 4 mps 760 mmHg 56%
    15:00 +13°C° 0 mm 4 mps 760 mmHg 62%
    16:00 +12°C° 0 mm 3 mps 760 mmHg 67%
    17:00 +10°C° 0 mm 3 mps 760 mmHg 72%
    18:00 +10°C° 0 mm 3 mps 760 mmHg 75%
    19:00 +9°C° 0 mm 3 mps 760 mmHg 79%
    20:00 +8°C° 0 mm 2 mps 760 mmHg 83%
    21:00 +8°C° 0 mm 2 mps 760 mmHg 84%
    22:00 +8°C° 0 mm 2 mps 760 mmHg 86%
    23:00 +7°C° 0 mm 2 mps 760 mmHg 87%

    25 November, Sunday

    Time Temperature Precipitation Wind Pressure Humidity
    00:00 +7°C° 0 mm 2 mps 760 mmHg 88%
    01:00 +7°C° 0 mm 2 mps 760 mmHg 89%
    02:00 +8°C° 0 mm 1 mps 760 mmHg 90%
    03:00 +8°C° 0 mm 1 mps 760 mmHg 90%
    04:00 +8°C° 0 mm 1 mps 760 mmHg 91%
    05:00 +7°C° 0 mm 1 mps 760 mmHg 91%
    06:00 +8°C° 0 mm 1 mps 760 mmHg 90%
    07:00 +8°C° 0 mm 1 mps 760 mmHg 90%
    08:00 +8°C° 0 mm 1 mps 760 mmHg 89%
    09:00 +10°C° 0 mm 1 mps 760 mmHg 81%
    10:00 +12°C° 0 mm 1 mps 760 mmHg 72%
    11:00 +12°C° 0 mm 0 mps 760 mmHg 64%
    12:00 +14°C° 0 mm 1 mps 759 mmHg 60%
    13:00 +15°C° 0 mm 1 mps 759 mmHg 56%
    14:00 +15°C° 0 mm 2 mps 758 mmHg 53%
    15:00 +14°C° 0 mm 1 mps 758 mmHg 57%
    16:00 +13°C° 0 mm 1 mps 758 mmHg 61%
    17:00 +12°C° 0 mm 1 mps 758 mmHg 65%
    18:00 +12°C° 0 mm 1 mps 758 mmHg 68%
    19:00 +11°C° 0 mm 1 mps 758 mmHg 70%
    20:00 +11°C° 0 mm 1 mps 758 mmHg 73%
    21:00 +10°C° 0 mm 1 mps 758 mmHg 73%
    22:00 +10°C° 0 mm 1 mps 758 mmHg 73%
    23:00 +10°C° 0 mm 1 mps 758 mmHg 73%
    Show more